| time (UTC) | temp F | wind direction | speed MPH | gust MPH | rain 1hr in | rain 24hr in | rain mn in | humidity % | barometer mb |
| 20260904145516 | 72 | 271 | 0.0 | 6.0 | 0.00 | 0.00 | 0.00 | 59 | 1007.3 |
| 20260904145016 | 71 | 243 | 1.0 | 4.0 | 0.00 | 0.00 | 0.00 | 50 | 1007.4 |
| 20260904144515 | 71 | 85 | 0.0 | 3.0 | 0.00 | 0.00 | 0.00 | 37 | 1007.4 |
| 20260904144015 | 71 | 85 | 0.0 | 6.0 | 0.00 | 0.00 | 0.00 | 34 | 1007.4 |
| 20260904143516 | 71 | 232 | 0.0 | 6.0 | 0.00 | 0.00 | 0.00 | 16 | 1007.5 |
| 20260904143016 | 71 | 0.0 | 0.0 | 0.00 | 0.00 | 0.00 | 7 | 1007.5 | |
| 20260904142515 | 70 | 0.0 | 0.0 | 0.00 | 0.00 | 0.00 | 3 | 1007.5 | |
| 20260904142016 | 70 | 0.0 | 0.0 | 0.00 | 0.00 | 0.00 | 3 | 1007.6 | |
| 20260904141516 | 70 | 0.0 | 0.0 | 0.00 | 0.00 | 0.00 | 4 | 1007.7 | |
| 20260904141035 | 69 | 0.0 | 0.0 | 0.00 | 0.00 | 0.00 | 4 | 1007.7 | |
| 20260904140516 | 69 | 0.0 | 0.0 | 0.00 | 0.00 | 0.00 | 5 | 1007.6 | |
| 20260904140015 | 68 | 0.0 | 0.0 | 0.00 | 0.00 | 0.00 | 5 | 1007.7 | |
| 20260904135516 | 68 | 0.0 | 0.0 | 0.00 | 0.00 | 0.00 | 5 | 1007.7 | |
| 20260904135056 | 68 | 0.0 | 0.0 | 0.00 | 0.00 | 0.00 | 6 | 1007.7 | |
| 20260904134516 | 67 | 0.0 | 0.0 | 0.00 | 0.00 | 0.00 | 6 | 1007.7 | |
| 20260904134016 | 67 | 0.0 | 0.0 | 0.00 | 0.00 | 0.00 | 6 | 1007.7 | |
| 20260904133516 | 66 | 0.0 | 0.0 | 0.00 | 0.00 | 0.00 | 6 | 1007.7 | |
| 20260904133015 | 66 | 0.0 | 0.0 | 0.00 | 0.00 | 0.00 | 6 | 1007.7 | |
| 20260904132515 | 66 | 0.0 | 0.0 | 0.00 | 0.00 | 0.00 | 6 | 1007.8 | |
| 20260904132015 | 66 | 0.0 | 0.0 | 0.00 | 0.00 | 0.00 | 6 | 1007.9 | |
| 20260904131515 | 66 | 0.0 | 0.0 | 0.00 | 0.00 | 0.00 | 6 | 1008.0 | |
| 20260904131015 | 66 | 0.0 | 0.0 | 0.00 | 0.00 | 0.00 | 6 | 1007.9 | |
| 20260904130515 | 66 | 0.0 | 0.0 | 0.00 | 0.00 | 0.00 | 6 | 1007.9 | |
| 20260904130015 | 65 | 0.0 | 0.0 | 0.00 | 0.00 | 0.00 | 6 | 1007.9 | |
| 20260904125515 | 65 | 0.0 | 0.0 | 0.00 | 0.00 | 0.00 | 6 | 1007.9 | |
| 20260904125016 | 65 | 0.0 | 0.0 | 0.00 | 0.00 | 0.00 | 6 | 1007.9 | |
| 20260904124515 | 65 | 0.0 | 0.0 | 0.00 | 0.00 | 0.00 | 6 | 1007.9 | |
| 20260904124016 | 65 | 0.0 | 0.0 | 0.00 | 0.00 | 0.00 | 7 | 1007.8 | |
| 20260904123515 | 65 | 0.0 | 0.0 | 0.00 | 0.00 | 0.00 | 7 | 1007.8 | |
| 20260904123015 | 65 | 0.0 | 0.0 | 0.00 | 0.00 | 0.00 | 7 | 1007.8 | |
| 20260904122515 | 65 | 0.0 | 0.0 | 0.00 | 0.00 | 0.00 | 7 | 1007.8 | |
| 20260904122015 | 65 | 0.0 | 0.0 | 0.00 | 0.00 | 0.00 | 7 | 1007.8 | |
| 20260904121515 | 64 | 0.0 | 0.0 | 0.00 | 0.00 | 0.00 | 7 | 1007.9 | |
| 20260904121035 | 64 | 0.0 | 0.0 | 0.00 | 0.00 | 0.00 | 7 | 1007.9 | |
| 20260904120535 | 64 | 0.0 | 0.0 | 0.00 | 0.00 | 0.00 | 7 | 1007.8 | |
| 20260904120035 | 64 | 0.0 | 0.0 | 0.00 | 0.00 | 0.00 | 7 | 1007.7 | |
| 20260904115515 | 64 | 0.0 | 0.0 | 0.00 | 0.00 | 0.00 | 7 | 1007.7 | |
| 20260904115015 | 64 | 0.0 | 0.0 | 0.00 | 0.00 | 0.00 | 7 | 1007.7 | |
| 20260904114515 | 64 | 0.0 | 0.0 | 0.00 | 0.00 | 0.00 | 7 | 1007.7 | |
| 20260904114015 | 64 | 0.0 | 0.0 | 0.00 | 0.00 | 0.00 | 7 | 1007.7 | |
| 20260904113515 | 64 | 0.0 | 0.0 | 0.00 | 0.00 | 0.00 | 7 | 1007.7 | |
| 20260904113015 | 64 | 0.0 | 0.0 | 0.00 | 0.00 | 0.00 | 7 | 1007.7 | |
| 20260904112515 | 64 | 0.0 | 0.0 | 0.00 | 0.00 | 0.00 | 7 | 1007.7 | |
| 20260904112035 | 63 | 0.0 | 0.0 | 0.00 | 0.00 | 0.00 | 7 | 1007.7 | |
| 20260904111515 | 63 | 0.0 | 0.0 | 0.00 | 0.00 | 0.00 | 7 | 1007.7 | |
| 20260904111015 | 63 | 0.0 | 0.0 | 0.00 | 0.00 | 0.00 | 8 | 1007.7 | |
| 20260904110515 | 63 | 0.0 | 0.0 | 0.00 | 0.00 | 0.00 | 8 | 1007.7 | |
| 20260904110035 | 63 | 0.0 | 0.0 | 0.00 | 0.00 | 0.00 | 8 | 1007.7 | |
| 20260904105515 | 63 | 0.0 | 0.0 | 0.00 | 0.00 | 0.00 | 8 | 1007.6 | |
| 20260904105015 | 63 | 0.0 | 0.0 | 0.00 | 0.00 | 0.00 | 8 | 1007.6 | |
| 20260904104515 | 63 | 0.0 | 0.0 | 0.00 | 0.00 | 0.00 | 8 | 1007.6 | |
| 20260904104015 | 63 | 0.0 | 0.0 | 0.00 | 0.00 | 0.00 | 8 | 1007.5 | |
| 20260904103515 | 64 | 0.0 | 0.0 | 0.00 | 0.00 | 0.00 | 8 | 1007.4 | |
| 20260904103155 | 64 | 0.0 | 0.0 | 0.00 | 0.00 | 0.00 | 8 | 1007.4 | |
| 20260904102515 | 64 | 0.0 | 0.0 | 0.00 | 0.00 | 0.00 | 8 | 1007.4 | |
| 20260904102015 | 64 | 0.0 | 0.0 | 0.00 | 0.00 | 0.00 | 8 | 1007.4 | |
| 20260904101515 | 64 | 0.0 | 0.0 | 0.00 | 0.00 | 0.00 | 7 | 1007.4 | |
| 20260904101015 | 64 | 0.0 | 0.0 | 0.00 | 0.00 | 0.00 | 7 | 1007.3 | |
| 20260904100515 | 64 | 0.0 | 0.0 | 0.00 | 0.00 | 0.00 | 7 | 1007.1 | |
| 20260904100015 | 64 | 0.0 | 0.0 | 0.00 | 0.00 | 0.00 | 7 | 1007.1 | |
| 20260904095515 | 64 | 0.0 | 0.0 | 0.00 | 0.00 | 0.00 | 7 | 1007.1 | |
| 20260904095015 | 65 | 0.0 | 0.0 | 0.00 | 0.00 | 0.00 | 7 | 1007.2 | |
| 20260904094515 | 65 | 0.0 | 0.0 | 0.00 | 0.00 | 0.00 | 7 | 1007.2 | |
| 20260904094015 | 65 | 0.0 | 0.0 | 0.00 | 0.01 | 0.00 | 7 | 1007.2 | |
| 20260904093515 | 65 | 0.0 | 0.0 | 0.00 | 0.02 | 0.00 | 7 | 1007.2 | |
| 20260904093015 | 65 | 0.0 | 0.0 | 0.00 | 0.02 | 0.00 | 7 | 1007.2 | |
| 20260904092515 | 65 | 0.0 | 0.0 | 0.00 | 0.02 | 0.00 | 7 | 1007.2 | |
| 20260904092015 | 65 | 0.0 | 0.0 | 0.00 | 0.02 | 0.00 | 7 | 1007.3 | |
| 20260904091515 | 65 | 0.0 | 0.0 | 0.00 | 0.03 | 0.00 | 7 | 1007.3 | |
| 20260904091015 | 65 | 0.0 | 0.0 | 0.00 | 0.03 | 0.00 | 7 | 1007.3 | |
| 20260904090515 | 65 | 0.0 | 0.0 | 0.00 | 0.05 | 0.00 | 6 | 1007.3 | |
| 20260904090035 | 65 | 0.0 | 0.0 | 0.00 | 0.06 | 0.00 | 6 | 1007.3 | |
| 20260904085515 | 65 | 0.0 | 0.0 | 0.00 | 0.06 | 0.00 | 6 | 1007.2 | |
| 20260904085015 | 65 | 0.0 | 0.0 | 0.00 | 0.07 | 0.00 | 6 | 1007.2 | |
| 20260904084535 | 66 | 0.0 | 0.0 | 0.00 | 0.07 | 0.00 | 7 | 1007.2 | |
| 20260904084015 | 66 | 0.0 | 0.0 | 0.00 | 0.07 | 0.00 | 6 | 1007.2 | |
| 20260904083514 | 66 | 0.0 | 0.0 | 0.00 | 0.07 | 0.00 | 6 | 1007.2 | |
| 20260904083015 | 66 | 0.0 | 0.0 | 0.00 | 0.07 | 0.00 | 6 | 1007.2 | |
| 20260904082515 | 66 | 0.0 | 0.0 | 0.00 | 0.07 | 0.00 | 6 | 1007.3 | |
| 20260904082015 | 66 | 0.0 | 0.0 | 0.00 | 0.07 | 0.00 | 6 | 1007.3 | |
| 20260904081515 | 66 | 0.0 | 0.0 | 0.00 | 0.07 | 0.00 | 6 | 1007.3 | |
| 20260904081055 | 66 | 0.0 | 0.0 | 0.00 | 0.07 | 0.00 | 6 | 1007.5 | |
| 20260904080515 | 66 | 0.0 | 0.0 | 0.00 | 0.07 | 0.00 | 6 | 1007.6 | |
| 20260904080035 | 66 | 0.0 | 0.0 | 0.00 | 0.07 | 0.00 | 6 | 1007.6 | |
| 20260904075517 | 66 | 0.0 | 0.0 | 0.00 | 0.07 | 0.00 | 6 | 1007.6 | |
| 20260904075017 | 66 | 0.0 | 0.0 | 0.00 | 0.07 | 0.00 | 6 | 1007.6 | |
| 20260904074517 | 66 | 0.0 | 0.0 | 0.00 | 0.09 | 0.00 | 6 | 1007.6 | |
| 20260904074017 | 66 | 0.0 | 0.0 | 0.00 | 0.10 | 0.00 | 6 | 1007.6 | |
| 20260904073517 | 66 | 0.0 | 0.0 | 0.00 | 0.10 | 0.00 | 6 | 1007.6 | |
| 20260904073037 | 66 | 0.0 | 0.0 | 0.00 | 0.10 | 0.00 | 6 | 1007.5 | |
| 20260904072516 | 66 | 0.0 | 0.0 | 0.00 | 0.10 | 0.00 | 6 | 1007.5 | |
| 20260904072016 | 66 | 0.0 | 0.0 | 0.00 | 0.10 | 0.00 | 6 | 1007.5 | |
| 20260904071517 | 66 | 0.0 | 0.0 | 0.00 | 0.10 | 0.00 | 6 | 1007.5 | |
| 20260904071017 | 66 | 0.0 | 0.0 | 0.00 | 0.10 | 0.00 | 6 | 1007.5 | |
| 20260904070517 | 66 | 0.0 | 0.0 | 0.00 | 0.10 | 0.00 | 6 | 1007.5 | |
| 20260904070016 | 66 | 0.0 | 0.0 | 0.00 | 0.10 | 0.00 | 6 | 1007.6 | |
| 20260904065516 | 66 | 0.0 | 0.0 | 0.00 | 0.10 | 0.00 | 6 | 1007.6 | |
| 20260904065016 | 66 | 0.0 | 0.0 | 0.00 | 0.10 | 0.00 | 6 | 1007.6 | |
| 20260904064537 | 66 | 0.0 | 0.0 | 0.00 | 0.10 | 0.00 | 6 | 1007.6 | |
| 20260904064016 | 66 | 0.0 | 0.0 | 0.00 | 0.10 | 0.00 | 6 | 1007.7 | |
| 20260904063516 | 66 | 0.0 | 0.0 | 0.00 | 0.10 | 0.00 | 6 | 1007.8 | |
| 20260904063016 | 66 | 0.0 | 0.0 | 0.00 | 0.10 | 0.00 | 6 | 1007.8 | |
| 20260904062517 | 66 | 0.0 | 0.0 | 0.00 | 0.10 | 0.00 | 6 | 1007.8 | |
| 20260904062016 | 66 | 0.0 | 0.0 | 0.00 | 0.10 | 0.00 | 6 | 1007.9 | |
| 20260904061516 | 66 | 0.0 | 0.0 | 0.00 | 0.10 | 0.00 | 6 | 1007.9 | |
| 20260904061016 | 66 | 0.0 | 0.0 | 0.00 | 0.10 | 0.00 | 6 | 1007.9 | |
| 20260904060517 | 66 | 0.0 | 0.0 | 0.00 | 0.10 | 0.00 | 6 | 1008.0 | |
| 20260904060016 | 66 | 0.0 | 0.0 | 0.00 | 0.10 | 0.00 | 6 | 1008.1 | |
| 20260904055516 | 66 | 0.0 | 0.0 | 0.00 | 0.10 | 0.00 | 6 | 1008.2 | |
| 20260904055016 | 66 | 0.0 | 0.0 | 0.00 | 0.10 | 0.00 | 6 | 1008.4 | |
| 20260904054516 | 66 | 0.0 | 0.0 | 0.00 | 0.10 | 0.00 | 7 | 1008.4 | |
| 20260904054036 | 66 | 0.0 | 0.0 | 0.00 | 0.10 | 0.00 | 7 | 1008.5 | |
| 20260904053516 | 66 | 0.0 | 0.0 | 0.00 | 0.10 | 0.00 | 7 | 1008.6 | |
| 20260904053016 | 66 | 0.0 | 0.0 | 0.00 | 0.10 | 0.00 | 7 | 1008.6 | |
| 20260904052516 | 66 | 0.0 | 0.0 | 0.00 | 0.10 | 0.00 | 7 | 1008.6 | |
| 20260904052016 | 66 | 0.0 | 0.0 | 0.00 | 0.10 | 0.00 | 7 | 1008.6 | |
| 20260904051516 | 66 | 0.0 | 0.0 | 0.00 | 0.10 | 0.00 | 7 | 1008.7 | |
| 20260904051016 | 66 | 0.0 | 0.0 | 0.00 | 0.10 | 0.00 | 7 | 1008.7 | |
| 20260904050517 | 66 | 0.0 | 0.0 | 0.00 | 0.10 | 0.00 | 7 | 1008.7 | |
| 20260904050016 | 66 | 0.0 | 0.0 | 0.00 | 0.10 | 0.00 | 7 | 1008.6 | |
| 20260904045516 | 66 | 0.0 | 0.0 | 0.00 | 0.10 | 0.00 | 7 | 1008.5 | |
| 20260904045016 | 66 | 0.0 | 0.0 | 0.00 | 0.10 | 0.00 | 7 | 1008.6 | |
| 20260904044556 | 66 | 0.0 | 0.0 | 0.00 | 0.10 | 0.00 | 7 | 1008.6 | |
| 20260904044016 | 66 | 0.0 | 0.0 | 0.00 | 0.10 | 0.00 | 7 | 1008.7 | |
| 20260904043516 | 66 | 0.0 | 0.0 | 0.00 | 0.10 | 0.00 | 7 | 1008.8 | |
| 20260904043037 | 66 | 0.0 | 0.0 | 0.00 | 0.10 | 0.00 | 7 | 1008.7 | |
| 20260904042516 | 66 | 0.0 | 0.0 | 0.00 | 0.10 | 0.00 | 8 | 1008.8 | |
| 20260904042016 | 66 | 0.0 | 0.0 | 0.00 | 0.10 | 0.00 | 8 | 1008.8 | |
| 20260904041516 | 66 | 0.0 | 0.0 | 0.00 | 0.10 | 0.00 | 8 | 1008.8 | |
| 20260904041016 | 65 | 0.0 | 0.0 | 0.00 | 0.10 | 0.00 | 8 | 1008.9 | |
| 20260904040516 | 65 | 0.0 | 0.0 | 0.00 | 0.10 | 0.00 | 9 | 1008.8 | |
| 20260904040016 | 65 | 0.0 | 0.0 | 0.00 | 0.10 | 0.10 | 9 | 1008.9 | |
| 20260904035516 | 65 | 0.0 | 0.0 | 0.00 | 0.10 | 0.10 | 9 | 1009.0 | |
| 20260904035016 | 65 | 0.0 | 0.0 | 0.00 | 0.10 | 0.10 | 10 | 1008.9 | |
| 20260904034556 | 66 | 0.0 | 0.0 | 0.00 | 0.10 | 0.10 | 10 | 1008.9 | |
| 20260904034016 | 66 | 0.0 | 0.0 | 0.00 | 0.10 | 0.10 | 10 | 1008.9 | |
| 20260904033536 | 66 | 0.0 | 0.0 | 0.00 | 0.10 | 0.10 | 10 | 1008.9 | |
| 20260904033036 | 66 | 0.0 | 0.0 | 0.00 | 0.10 | 0.10 | 10 | 1009.0 | |
| 20260904032556 | 66 | 0.0 | 0.0 | 0.00 | 0.10 | 0.10 | 10 | 1008.9 | |
| 20260904032016 | 66 | 0.0 | 0.0 | 0.00 | 0.10 | 0.10 | 11 | 1009.0 | |
| 20260904031536 | 66 | 0.0 | 0.0 | 0.00 | 0.10 | 0.10 | 10 | 1009.0 | |
| 20260904031016 | 66 | 0.0 | 0.0 | 0.00 | 0.10 | 0.10 | 11 | 1009.0 | |
| 20260904030516 | 66 | 0.0 | 0.0 | 0.00 | 0.10 | 0.10 | 11 | 1009.0 | |
| 20260904030016 | 66 | 0.0 | 0.0 | 0.00 | 0.10 | 0.10 | 10 | 1009.0 | |
| 20260904025516 | 67 | 0.0 | 0.0 | 0.00 | 0.10 | 0.10 | 10 | 1009.0 | |
| 20260904025015 | 67 | 0.0 | 0.0 | 0.00 | 0.10 | 0.10 | 10 | 1009.0 | |
| 20260904024516 | 67 | 0.0 | 0.0 | 0.00 | 0.10 | 0.10 | 11 | 1008.9 | |
| 20260904024015 | 67 | 0.0 | 0.0 | 0.00 | 0.10 | 0.10 | 10 | 1008.9 | |
| 20260904023516 | 67 | 0.0 | 0.0 | 0.00 | 0.10 | 0.10 | 10 | 1009.0 | |
| 20260904023116 | 67 | 0.0 | 0.0 | 0.00 | 0.10 | 0.10 | 9 | 1009.1 | |
| 20260904022535 | 67 | 0.0 | 0.0 | 0.00 | 0.10 | 0.10 | 10 | 1009.1 | |
| 20260904022015 | 67 | 0.0 | 0.0 | 0.00 | 0.10 | 0.10 | 10 | 1009.1 | |
| 20260904021516 | 67 | 0.0 | 0.0 | 0.00 | 0.10 | 0.10 | 10 | 1009.2 | |
| 20260904021016 | 67 | 0.0 | 0.0 | 0.00 | 0.10 | 0.10 | 10 | 1009.2 | |
| 20260904020516 | 67 | 0.0 | 0.0 | 0.00 | 0.10 | 0.10 | 10 | 1009.3 | |
| 20260904020016 | 67 | 0.0 | 0.0 | 0.00 | 0.10 | 0.10 | 10 | 1009.3 | |
| 20260904015516 | 67 | 0.0 | 0.0 | 0.00 | 0.10 | 0.10 | 10 | 1009.3 | |
| 20260904015015 | 67 | 0.0 | 0.0 | 0.00 | 0.10 | 0.10 | 10 | 1009.4 | |
| 20260904014515 | 68 | 0.0 | 0.0 | 0.00 | 0.10 | 0.10 | 10 | 1009.5 | |
| 20260904014015 | 68 | 0.0 | 0.0 | 0.00 | 0.10 | 0.10 | 10 | 1009.4 | |
| 20260904013515 | 68 | 0.0 | 0.0 | 0.00 | 0.10 | 0.10 | 11 | 1009.4 | |
| 20260904013016 | 68 | 0.0 | 0.0 | 0.00 | 0.10 | 0.10 | 12 | 1009.5 | |
| 20260904012516 | 68 | 0.0 | 0.0 | 0.00 | 0.10 | 0.10 | 12 | 1009.5 | |
| 20260904012015 | 68 | 0.0 | 0.0 | 0.00 | 0.10 | 0.10 | 13 | 1009.5 | |
| 20260904011515 | 68 | 0.0 | 0.0 | 0.00 | 0.10 | 0.10 | 13 | 1009.5 | |
| 20260904011035 | 68 | 0.0 | 0.0 | 0.00 | 0.10 | 0.10 | 13 | 1009.5 | |
| 20260904010515 | 68 | 0.0 | 0.0 | 0.00 | 0.10 | 0.10 | 13 | 1009.5 | |
| 20260904010015 | 68 | 0.0 | 0.0 | 0.00 | 0.10 | 0.10 | 13 | 1009.5 | |
| 20260904005515 | 68 | 0.0 | 0.0 | 0.00 | 0.10 | 0.10 | 14 | 1009.5 | |
| 20260904005035 | 68 | 0.0 | 0.0 | 0.00 | 0.10 | 0.10 | 14 | 1009.4 | |
| 20260904004555 | 69 | 0.0 | 0.0 | 0.00 | 0.10 | 0.10 | 14 | 1009.3 | |
| 20260904004015 | 69 | 0.0 | 0.0 | 0.00 | 0.10 | 0.10 | 16 | 1009.3 | |
| 20260904003516 | 69 | 0.0 | 0.0 | 0.00 | 0.10 | 0.10 | 18 | 1009.3 | |
| 20260904003015 | 69 | 0.0 | 0.0 | 0.00 | 0.10 | 0.10 | 19 | 1009.2 | |
| 20260904002515 | 69 | 0.0 | 0.0 | 0.00 | 0.10 | 0.10 | 20 | 1009.0 | |
| 20260904002015 | 69 | 0.0 | 0.0 | 0.00 | 0.10 | 0.10 | 20 | 1008.9 | |
| 20260904001515 | 69 | 0.0 | 0.0 | 0.00 | 0.10 | 0.10 | 19 | 1008.9 | |
| 20260904001015 | 69 | 0.0 | 0.0 | 0.00 | 0.10 | 0.10 | 19 | 1008.8 | |
| 20260904000515 | 70 | 0.0 | 0.0 | 0.00 | 0.10 | 0.10 | 19 | 1008.6 | |
| 20260904000015 | 70 | 0.0 | 0.0 | 0.00 | 0.10 | 0.10 | 20 | 1008.5 | |
| 20260903235515 | 70 | 0.0 | 0.0 | 0.00 | 0.10 | 0.10 | 20 | 1008.5 | |
| 20260903235035 | 70 | 0.0 | 0.0 | 0.00 | 0.10 | 0.10 | 22 | 1008.7 | |
| 20260903234515 | 70 | 0.0 | 0.0 | 0.00 | 0.10 | 0.10 | 25 | 1008.8 | |
| 20260903234015 | 71 | 0.0 | 0.0 | 0.00 | 0.10 | 0.10 | 26 | 1008.8 | |
| 20260903233515 | 71 | 0.0 | 0.0 | 0.00 | 0.10 | 0.10 | 25 | 1008.7 | |
| 20260903233015 | 71 | 0.0 | 0.0 | 0.00 | 0.10 | 0.10 | 26 | 1008.6 | |
| 20260903232515 | 71 | 0.0 | 0.0 | 0.00 | 0.10 | 0.10 | 28 | 1008.7 | |
| 20260903232015 | 71 | 0.0 | 0.0 | 0.00 | 0.10 | 0.10 | 28 | 1008.7 | |
| 20260903231516 | 72 | 0.0 | 0.0 | 0.00 | 0.10 | 0.10 | 29 | 1008.7 | |
| 20260903231015 | 72 | 0.0 | 0.0 | 0.00 | 0.10 | 0.10 | 29 | 1008.9 | |
| 20260903230515 | 72 | 0.0 | 0.0 | 0.00 | 0.10 | 0.10 | 30 | 1008.9 | |
| 20260903230015 | 72 | 0.0 | 0.0 | 0.00 | 0.10 | 0.10 | 31 | 1008.9 | |
| 20260903225515 | 72 | 0.0 | 0.0 | 0.00 | 0.10 | 0.10 | 32 | 1008.8 | |
| 20260903225015 | 72 | 0.0 | 0.0 | 0.00 | 0.10 | 0.10 | 34 | 1008.7 | |
| 20260903224515 | 72 | 0.0 | 0.0 | 0.00 | 0.10 | 0.10 | 35 | 1008.6 | |
| 20260903224015 | 73 | 0.0 | 0.0 | 0.00 | 0.10 | 0.10 | 39 | 1008.6 | |
| 20260903223535 | 73 | 0.0 | 0.0 | 0.00 | 0.10 | 0.10 | 42 | 1008.6 | |
| 20260903223015 | 73 | 0.0 | 0.0 | 0.00 | 0.10 | 0.10 | 43 | 1008.7 | |
| 20260903222515 | 73 | 0.0 | 0.0 | 0.00 | 0.10 | 0.10 | 43 | 1008.9 | |
| 20260903222015 | 73 | 0.0 | 0.0 | 0.00 | 0.10 | 0.10 | 43 | 1009.0 | |
| 20260903221535 | 73 | 0.0 | 0.0 | 0.00 | 0.10 | 0.10 | 43 | 1009.1 | |
| 20260903221035 | 73 | 0.0 | 0.0 | 0.00 | 0.10 | 0.10 | 45 | 1009.2 | |
| 20260903220515 | 73 | 0.0 | 0.0 | 0.00 | 0.10 | 0.10 | 47 | 1009.2 | |
| 20260903220015 | 73 | 0.0 | 0.0 | 0.00 | 0.10 | 0.10 | 47 | 1009.2 | |
| 20260903215515 | 73 | 0.0 | 0.0 | 0.00 | 0.10 | 0.10 | 49 | 1009.1 | |
| 20260903215015 | 73 | 0.0 | 0.0 | 0.00 | 0.10 | 0.10 | 51 | 1009.1 | |
| 20260903214515 | 73 | 0.0 | 0.0 | 0.00 | 0.10 | 0.10 | 52 | 1009.2 | |
| 20260903214015 | 74 | 0.0 | 0.0 | 0.00 | 0.10 | 0.10 | 54 | 1009.2 | |
| 20260903213515 | 74 | 0.0 | 0.0 | 0.00 | 0.10 | 0.10 | 53 | 1009.1 | |
| 20260903213035 | 74 | 0.0 | 0.0 | 0.00 | 0.10 | 0.10 | 54 | 1009.1 | |
| 20260903212555 | 74 | 0.0 | 0.0 | 0.00 | 0.10 | 0.10 | 54 | 1009.0 | |
| 20260903212035 | 74 | 0.0 | 0.0 | 0.00 | 0.10 | 0.10 | 52 | 1009.1 | |
| 20260903211535 | 74 | 0.0 | 0.0 | 0.00 | 0.10 | 0.10 | 51 | 1009.2 | |
| 20260903211015 | 74 | 0.0 | 0.0 | 0.00 | 0.10 | 0.10 | 58 | 1009.2 | |
| 20260903210515 | 74 | 0.0 | 2.0 | 0.00 | 0.10 | 0.10 | 56 | 1009.2 | |
| 20260903210015 | 74 | 277 | 0.0 | 2.0 | 0.00 | 0.10 | 0.10 | 56 | 1009.3 |
| 20260903205515 | 74 | 277 | 0.0 | 2.0 | 0.00 | 0.10 | 0.10 | 50 | 1009.1 |
| 20260903205015 | 74 | 0.0 | 0.0 | 0.00 | 0.10 | 0.10 | 53 | 1009.1 | |
| 20260903204515 | 74 | 0.0 | 0.0 | 0.00 | 0.10 | 0.10 | 55 | 1009.2 | |
| 20260903204015 | 74 | 0.0 | 0.0 | 0.00 | 0.10 | 0.10 | 52 | 1009.1 | |
| 20260903203555 | 74 | 0.0 | 0.0 | 0.00 | 0.10 | 0.10 | 56 | 1009.2 | |
| 20260903203015 | 74 | 0.0 | 0.0 | 0.00 | 0.10 | 0.10 | 58 | 1009.2 | |
| 20260903202515 | 74 | 0.0 | 0.0 | 0.00 | 0.10 | 0.10 | 65 | 1009.2 | |
| 20260903202015 | 74 | 0.0 | 0.0 | 0.00 | 0.10 | 0.10 | 65 | 1009.2 | |
| 20260903201515 | 73 | 0.0 | 0.0 | 0.00 | 0.10 | 0.10 | 64 | 1009.3 | |
| 20260903201015 | 73 | 0.0 | 0.0 | 0.00 | 0.10 | 0.10 | 61 | 1009.3 | |
| 20260903200515 | 73 | 0.0 | 0.0 | 0.00 | 0.10 | 0.10 | 63 | 1009.4 | |
| 20260903200015 | 73 | 0.0 | 0.0 | 0.00 | 0.10 | 0.10 | 63 | 1009.5 | |
| 20260903195515 | 73 | 0.0 | 0.0 | 0.00 | 0.10 | 0.10 | 60 | 1009.5 | |
| 20260903195015 | 73 | 0.0 | 0.0 | 0.00 | 0.10 | 0.10 | 58 | 1009.6 | |
| 20260903194515 | 73 | 0.0 | 0.0 | 0.00 | 0.10 | 0.10 | 57 | 1009.7 | |
| 20260903194035 | 73 | 0.0 | 0.0 | 0.00 | 0.10 | 0.10 | 55 | 1009.8 | |
| 20260903193514 | 73 | 0.0 | 0.0 | 0.00 | 0.10 | 0.10 | 59 | 1009.8 | |
| 20260903193014 | 73 | 0.0 | 3.0 | 0.00 | 0.10 | 0.10 | 65 | 1009.9 | |
| 20260903192514 | 73 | 278 | 1.0 | 3.0 | 0.00 | 0.10 | 0.10 | 65 | 1010.0 |
| 20260903192037 | 73 | 355 | 0.0 | 2.0 | 0.00 | 0.10 | 0.10 | 62 | 1010.0 |
| 20260903191516 | 73 | 48 | 0.0 | 2.0 | 0.00 | 0.10 | 0.10 | 61 | 1010.0 |
| 20260903191017 | 72 | 0.0 | 1.0 | 0.00 | 0.10 | 0.10 | 64 | 1010.0 | |
| 20260903190517 | 72 | 88 | 0.0 | 1.0 | 0.00 | 0.10 | 0.10 | 62 | 1010.0 |
| 20260903190017 | 72 | 88 | 0.0 | 1.0 | 0.00 | 0.10 | 0.10 | 61 | 1009.9 |
| 20260903185517 | 72 | 0.0 | 2.0 | 0.00 | 0.10 | 0.10 | 63 | 1010.0 | |
| 20260903185017 | 72 | 65 | 0.0 | 2.0 | 0.00 | 0.10 | 0.10 | 64 | 1010.1 |
| 20260903184517 | 72 | 0.0 | 1.0 | 0.00 | 0.10 | 0.10 | 61 | 1010.3 | |
| 20260903184017 | 72 | 4 | 0.0 | 2.0 | 0.00 | 0.10 | 0.10 | 60 | 1010.3 |
| 20260903183517 | 71 | 25 | 0.0 | 2.0 | 0.00 | 0.10 | 0.10 | 55 | 1010.4 |
| 20260903183017 | 71 | 0.0 | 0.0 | 0.00 | 0.10 | 0.10 | 55 | 1010.4 | |
| 20260903182537 | 71 | 0.0 | 0.0 | 0.00 | 0.10 | 0.10 | 54 | 1010.4 | |
| 20260903182016 | 71 | 0.0 | 1.0 | 0.00 | 0.10 | 0.10 | 53 | 1010.3 | |
| 20260903181516 | 71 | 311 | 0.0 | 1.0 | 0.00 | 0.10 | 0.10 | 53 | 1010.4 |
| 20260903181016 | 71 | 309 | 0.0 | 1.0 | 0.00 | 0.10 | 0.10 | 48 | 1010.5 |
| 20260903180617 | 70 | 311 | 0.0 | 4.0 | 0.00 | 0.10 | 0.10 | 46 | 1010.6 |
| 20260903180016 | 70 | 167 | 0.0 | 4.0 | 0.00 | 0.10 | 0.10 | 43 | 1010.6 |
| 20260903175536 | 70 | 23 | 0.0 | 3.0 | 0.00 | 0.10 | 0.10 | 41 | 1010.6 |
| 20260903175016 | 70 | 17 | 0.0 | 2.0 | 0.00 | 0.10 | 0.10 | 42 | 1010.7 |
| 20260903174536 | 69 | 15 | 0.0 | 2.0 | 0.00 | 0.10 | 0.10 | 41 | 1010.8 |
| 20260903174016 | 69 | 88 | 0.0 | 1.0 | 0.00 | 0.10 | 0.10 | 45 | 1010.9 |
| 20260903173516 | 69 | 0.0 | 0.0 | 0.00 | 0.10 | 0.10 | 42 | 1010.9 | |
| 20260903173016 | 69 | 0.0 | 0.0 | 0.00 | 0.10 | 0.10 | 44 | 1010.9 | |
| 20260903172516 | 69 | 0.0 | 0.0 | 0.00 | 0.10 | 0.10 | 45 | 1011.0 | |
| 20260903172037 | 70 | 0.0 | 1.0 | 0.00 | 0.10 | 0.10 | 44 | 1011.0 | |
| 20260903171516 | 70 | 49 | 0.0 | 2.0 | 0.00 | 0.10 | 0.10 | 43 | 1011.0 |
| 20260903171037 | 70 | 64 | 0.0 | 3.0 | 0.00 | 0.10 | 0.10 | 45 | 1010.9 |
| 20260903170516 | 70 | 330 | 0.0 | 3.0 | 0.00 | 0.10 | 0.10 | 37 | 1010.9 |
| 20260903170016 | 70 | 0.0 | 0.0 | 0.00 | 0.10 | 0.10 | 30 | 1010.7 | |
| 20260903165516 | 69 | 0.0 | 0.0 | 0.00 | 0.10 | 0.10 | 30 | 1010.7 | |
| 20260903165036 | 69 | 0.0 | 0.0 | 0.00 | 0.10 | 0.10 | 32 | 1010.8 | |
| 20260903164516 | 69 | 0.0 | 2.0 | 0.00 | 0.10 | 0.10 | 35 | 1010.8 | |
| 20260903164017 | 69 | 84 | 0.0 | 2.0 | 0.00 | 0.10 | 0.10 | 27 | 1010.9 |
| 20260903163516 | 69 | 0.0 | 0.0 | 0.00 | 0.10 | 0.10 | 24 | 1010.8 | |
| 20260903163016 | 69 | 0.0 | 2.0 | 0.00 | 0.10 | 0.10 | 23 | 1010.8 | |
| 20260903162516 | 68 | 270 | 0.0 | 2.0 | 0.00 | 0.10 | 0.10 | 27 | 1010.9 |
| 20260903162016 | 68 | 330 | 0.0 | 1.0 | 0.00 | 0.10 | 0.10 | 23 | 1010.9 |
| 20260903161536 | 68 | 330 | 0.0 | 1.0 | 0.00 | 0.10 | 0.10 | 26 | 1011.0 |
| 20260903161036 | 67 | 273 | 0.0 | 2.0 | 0.00 | 0.10 | 0.10 | 24 | 1011.0 |
| 20260903160516 | 67 | 273 | 0.0 | 2.0 | 0.00 | 0.10 | 0.10 | 19 | 1011.0 |
| 20260903160016 | 67 | 0.0 | 2.0 | 0.00 | 0.10 | 0.10 | 18 | 1011.0 | |
| 20260903155516 | 67 | 346 | 0.0 | 2.0 | 0.00 | 0.10 | 0.10 | 19 | 1011.0 |
| 20260903155016 | 67 | 346 | 0.0 | 2.0 | 0.00 | 0.10 | 0.10 | 16 | 1011.1 |
| 20260903154516 | 67 | 12 | 0.0 | 2.0 | 0.00 | 0.10 | 0.10 | 13 | 1011.0 |
| 20260903154016 | 67 | 6 | 0.0 | 2.0 | 0.00 | 0.10 | 0.10 | 11 | 1011.1 |
| 20260903153516 | 66 | 190 | 0.0 | 1.0 | 0.00 | 0.10 | 0.10 | 11 | 1011.3 |
| 20260903153016 | 66 | 0.0 | 0.0 | 0.00 | 0.10 | 0.10 | 10 | 1011.3 | |
| 20260903152516 | 66 | 0.0 | 0.0 | 0.00 | 0.10 | 0.10 | 10 | 1011.5 | |
| 20260903152016 | 66 | 0.0 | 1.0 | 0.00 | 0.10 | 0.10 | 10 | 1011.5 | |
| 20260903151516 | 66 | 190 | 0.0 | 1.0 | 0.00 | 0.10 | 0.10 | 9 | 1011.6 |
| 20260903151016 | 66 | 0.0 | 2.0 | 0.00 | 0.10 | 0.10 | 9 | 1011.7 | |
| 20260903150516 | 65 | 190 | 0.0 | 2.0 | 0.00 | 0.10 | 0.10 | 9 | 1011.6 |
| 20260903150016 | 65 | 180 | 0.0 | 1.0 | 0.00 | 0.10 | 0.10 | 10 | 1011.5 |